Flag for Czech Republic Weather past 2 weeks in Tábor, Czech Republic

Now
68 °F

Partly sunny.


Feels Like: 68 °F
Forecast: 50 / 68 °F
Wind: 5 mph from West

Location: Kocelovice

Current Time: Aug 30, 2014 at 12:38:40 PM

Latest Report: Aug 30, 2014 at 12:00 PM


Visibility: 22 mi

Pressure: 30.05 "Hg

Humidity: 69%

Dew point: 57 °F

Location of TáborLocation

Historic Weather in Tábor — Graph

°F

Tábor temperature yesterday

Maximum temperature yesterday: 71 °F (at 2:00 PM)
Minimum temperature yesterday: 47 °F (at 4:00 AM)
Average temperature yesterday: 58 °F

Past Weeks' High & Low Weather Summary

 TemperatureHumidityPressure
High71 °F (Aug 29, 2:00 PM)100% (Aug 21, 5:00 AM)30.16 "Hg (Aug 21, 5:00 AM)
Low40 °F (Aug 25, 6:00 AM)41% (Aug 28, 3:00 PM)29.70 "Hg (Aug 26, 2:00 PM)
Average56 °F79%29.98 "Hg
* Reported Aug 15 11:00 AM — Aug 30 11:00 AM, Tábor, Weather by CustomWeather, © 2014

Note: Actual official high and low records may vary slightly from our data, if they occured in-between our weather recording intervals... More about our weather records

Advertising

Tábor weather history for previous 24 hours

 ConditionsComfort  
Time TempWeatherWind HumidityBarometerVisibility
11:00 AM
Aug 30
66 °FPartly sunny.N/A81%30.05 "Hg15 mi
10:00 AM62 °FPartly sunny.N/A90%30.06 "Hg14 mi
9:00 AM57 °FFog.N/A95%30.07 "Hg3 mi
8:00 AM53 °FFog.N/A99%30.09 "Hg3 mi
7:00 AM51 °FFog.1 mph99%30.09 "Hg5 mi
6:00 AM52 °FCool.N/A100%30.08 "Hg4 mi
5:00 AM52 °FDuststorm.2 mph99%30.08 "Hg1 mi
4:00 AM50 °FCool.2 mph100%30.09 "Hg2 mi
3:00 AM53 °FDuststorm.2 mph99%30.09 "Hg0 mi
2:00 AM54 °FDuststorm.N/A99%30.07 "Hg1 mi
1:00 AM55 °FCool.1 mph99%30.08 "Hg2 mi
12:00 AM56 °FCool.N/A99%30.06 "Hg6 mi
11:00 PM
Aug 29
56 °FFog.1 mph99%30.06 "Hg4 mi
9:00 PM58 °FPassing clouds.N/A90%30.04 "Hg43 mi
8:00 PM60 °FPassing clouds.N/A87%30.02 "Hg43 mi
7:00 PM65 °FScattered clouds.2 mph81%30.00 "Hg28 mi
6:00 PM65 °FPartly sunny.3 mph82%30.00 "Hg22 mi
5:00 PM62 °FLow clouds.5 mph87%30.02 "Hg19 mi
4:00 PM62 °FLight rain. Low clouds.6 mph96%30.03 "Hg4 mi
3:00 PM68 °FLight rain. Overcast.8 mph71%30.00 "Hg9 mi
2:00 PM71 °FOvercast.N/A61%29.98 "Hg43 mi
1:00 PM69 °FOvercast.N/A62%29.99 "Hg43 mi
12:00 PM69 °FOvercast.N/A62%30.01 "Hg43 mi
Weather by CustomWeather, © 2014

See weather overviewHow to use our weather pages